Location: Lake Zurich
(42.1970°N, 88.0930°W)
Time: 03:00:40
(UTC-05:00)

Daily predictions for brighter satellites

Satellite Brightness Start Highest point End
(mag) Time Altitude Azimuth Time Altitude Azimuth Time Altitude Azimuth
ATLAS CENTAUR R/B 4.4 00:11:14 10° NNE 00:11:20 10° NNE 00:11:20 10° NNE
ATLAS CENTAUR R/B 4.2 00:06:02 10° NW 00:16:59 37° NNE 00:18:48 30° NE
NOSS 3-2 (A) 4.2 00:11:55 10° NW 00:18:44 60° W 00:18:44 60° W
Lacrosse 5 3.8 00:20:53 22° WNW 00:22:43 27° NNW 00:27:01 10° NNE
Cosmos 2237 Rocket 3.2 00:26:42 42° NNE 00:26:42 42° NNE 00:30:25 10° NNE
COSMOS 2455 3.7 00:30:08 10° NNW 00:35:16 43° NE 00:35:16 43° NE
Cosmos 2184 Rocket 4.5 00:48:03 55° NNW 00:48:03 55° NNW 00:52:53 10° N
Nadezhda 3 Rocket 4.5 00:55:15 10° N 01:00:22 59° NNE 01:00:22 59° NNE
Cosmos 2278 Rocket 3.9 00:57:37 10° NW 01:00:12 24° WNW 01:00:12 24° WNW
Mayak 1.3 01:08:04 10° N 01:09:21 19° N 01:09:21 19° N
SL-16 R/B 3.1 01:31:15 44° NNW 01:31:15 44° NNW 01:35:24 10° NNE
Cosmos 2219 Rocket 4.4 01:28:55 15° WNW 01:30:17 16° NW 01:33:43 10° N
USA 215 4.2 01:42:32 35° WNW 01:42:32 35° WNW 01:46:14 10° NW
CENTAUR R/B 3.3 01:32:27 10° NW 01:39:08 58° W 01:39:08 58° W
Cosmos 2333 Rocket 4.4 01:39:35 15° WNW 01:40:45 16° NW 01:44:14 10° N
Cosmos 1943 Rocket 3.4 02:04:24 10° N 02:09:31 37° ENE 02:10:34 34° E
Cosmos 2237 Rocket 4.5 02:08:31 13° WNW 02:09:47 14° NW 02:12:42 10° NNW
Cosmos 2369 Rocket 2.6 02:08:10 10° NNW 02:13:03 60° NNE 02:13:03 60° NNE
ADEOS Rocket 3.4 02:09:36 10° NNE 02:14:17 48° ENE 02:14:17 48° ENE
SL-16 R/B 3.8 02:12:49 26° ESE 02:15:22 36° ENE 02:20:58 10° N
BREEZE-M DEB (TANK) 4.0 02:23:08 66° ENE 02:23:08 66° ENE 02:33:03 10° ENE
SL-8 Rocket 4.4 02:24:38 51° NW 02:24:38 51° NW 02:30:03 10° N
SL-08 R/B 4.3 02:25:13 44° NE 02:25:13 44° NE 02:28:53 10° N
Cosmos 1943 3.5 02:25:19 62° NE 02:25:19 62° NE 02:30:08 10° NNE
Cosmos 2218 Rocket 4.2 02:26:20 61° NW 02:26:20 61° NW 02:32:12 10° N
Resurs 1-4 Rocket 3.5 02:23:33 10° NE 02:28:07 29° E 02:28:16 29° E
CZ-2D R/B 3.4 02:26:51 10° NNE 02:31:37 31° E 02:31:55 31° ESE
Cosmos 1763 Rocket 4.1 02:33:54 51° ENE 02:33:54 51° ENE 02:37:56 10° NNE
Cosmos 1937 Rocket 4.1 02:31:14 10° NNW 02:35:14 52° NNW 02:35:14 52° NNW
Meteor 1-16 Rocket 4.3 02:42:15 77° E 02:42:15 77° E 02:48:07 10° NNE
UNK 4.5 02:46:41 48° ENE 02:46:41 48° ENE 02:50:54 10° N
Cosmos 2151 4.1 02:48:54 10° N 02:52:09 43° NE 02:52:09 43° NE
Cosmos 2263 4.3 02:48:42 10° NNW 02:53:33 66° NW 02:53:33 66° NW
Cosmos 1626 3.9 02:54:02 10° N 02:56:11 30° NNE 02:56:11 30° NNE
SL-24 R/B - RUBIN 2 4.4 02:58:48 66° W 02:59:24 70° NW 03:05:36 10° NNE
Meteor 1-11 4.1 02:54:56 10° N 03:00:35 88° E 03:00:47 84° SSE
BREEZE-M DEB (TANK) 3.6 03:05:24 64° SW 03:05:33 64° SSW 03:20:11 10° SE
USA 32 4.0 03:01:27 10° N 03:06:43 74° E 03:07:10 69° SE
MOS 1 Rocket 3.8 03:03:16 10° NNE 03:07:21 46° E 03:07:21 46° E
Cosmos 1000 Rocket 4.4 03:02:10 10° N 03:08:26 83° W 03:09:26 65° S
Cosmos 1814 Rocket 4.4 03:09:16 52° NW 03:09:16 52° NW 03:14:10 10° N
Meteor 2-1 Rocket 4.4 03:11:14 56° SSE 03:12:13 67° E 03:17:44 10° NNE
Cosmos 2239 Rocket 4.4 03:14:57 61° SSW 03:16:09 84° W 03:22:30 10° N
Cosmos 1500 Rocket 4.0 03:12:42 10° N 03:16:10 54° NNW 03:16:10 54° NNW
Cosmos 841 Rocket 3.5 03:19:04 67° WNW 03:19:08 67° WNW 03:24:19 10° NNE
ARIANE 5 R/B 2.6 03:16:41 10° NNE 03:21:57 76° ESE 03:22:47 62° SSE
Gblst 52 Del rocket 4.4 03:21:32 51° W 03:22:52 67° NNW 03:28:28 10° NE
Cosmos 1535 Rocket 4.4 03:22:04 56° SSW 03:23:32 82° W 03:29:59 10° N
NPP 4.1 03:20:23 10° N 03:25:28 44° WNW 03:25:42 44° WNW
Cosmos 1908 3.8 03:27:34 54° E 03:27:34 54° E 03:31:07 10° NNE
IRS-1C 4.4 03:32:19 10° N 03:37:25 47° WNW 03:38:01 45° W
ADEOS 3.5 03:36:29 10° NNE 03:41:44 84° WNW 03:43:02 52° SSW
IRS-1D 3.6 03:37:13 10° N 03:42:17 62° WNW 03:43:10 53° WSW
Cosmos 1805 Rocket 3.9 03:40:37 10° N 03:45:03 66° E 03:47:01 32° SSE
Spot 4 Rocket 4.3 03:45:12 10° N 03:50:12 52° WNW 03:51:11 45° WSW
Cosmos 2221 2.4 03:51:19 64° WSW 03:51:46 70° W 03:56:06 10° N
Lacrosse 5 4.4 03:48:08 10° NNW 03:51:58 21° NNE 03:55:47 10° ENE
Okean O Rocket 4.2 03:49:19 10° NE 03:52:06 16° E 03:54:52 10° SE
BREEZE-M DEB (TANK) 3.7 03:44:36 10° W 03:52:55 50° N 03:55:23 10° ENE
Cosmos 1943 Rocket 3.1 03:48:18 10° NW 03:52:01 29° W 03:52:01 29° W
Cosmos 2098 Rocket 4.0 03:51:32 41° SW 03:53:21 55° W 03:58:38 10° N
Cosmos 2369 Rocket 4.2 03:53:40 10° WNW 03:54:47 13° WNW 03:54:47 13° WNW
SL-16 R/B 3.0 03:57:55 36° WSW 03:58:54 38° W 04:04:41 10° NNW
ADEOS Rocket 4.2 03:56:04 10° NNW 04:00:08 22° WNW 04:01:13 20° WNW
PSLV R/B 3.7 04:00:56 49° ESE 04:00:56 49° ESE 04:03:34 10° E
Cosmos 1656 Rocket 3.7 03:59:45 10° NNW 04:05:22 60° WSW 04:10:38 11° S
Resurs 1-4 Rocket 2.9 04:03:13 10° N 04:07:58 36° WNW 04:09:20 31° W
Cosmos 1400 Rocket 2.8 04:07:00 10° NNW 04:10:50 54° W 04:11:23 49° SW
Cosmos 292 Rocket 4.0 04:08:51 28° S 04:11:21 68° ESE 04:16:09 10° NNE
Abrixas 4.3 04:10:35 20° NNW 04:11:35 25° NNE 04:13:52 10° ENE
CZ-2D R/B 3.0 04:06:51 10° N 04:11:40 34° WNW 04:13:14 29° W
Cosmos 372 Rocket 4.0 04:07:18 10° NNW 04:12:20 54° WSW 04:15:40 21° S
Cosmos 2123 Rocket 4.3 04:06:49 10° NNW 04:12:45 46° W 04:15:38 28° SW
UNKNOWN OBJECT B 3.1 04:11:10 10° N 04:15:07 52° WNW 04:16:06 41° WSW
CZ-3A R/B 3.6 04:09:24 10° WNW 04:15:55 35° WSW 04:20:57 10° S
Cosmos 783 Rocket 4.5 04:16:28 31° SSW 04:19:02 71° WNW 04:24:18 10° NNE
MOZ.5/SAFIR/RUBIN 5/SL-8 4.2 04:19:03 34° SW 04:20:12 40° W 04:24:37 10° NNW
Meteor 2-17 Rocket 4.5 04:18:16 13° S 04:23:53 82° E 04:30:02 10° N
Sich 1 2.9 04:19:29 10° NNW 04:23:54 71° W 04:27:17 16° S
Cosmos 540 Rocket 4.2 04:22:43 27° WSW 04:24:34 36° WNW 04:29:18 10° N
Cosmos 2228 Rocket 3.7 04:22:49 10° S 04:27:12 57° E 04:31:36 10° NNE
Cosmos 1125 Rocket 4.1 04:22:34 10° NW 04:27:14 34° W 04:29:15 25° SW
Cosmos 1459 Rocket 4.1 04:22:51 10° S 04:28:59 75° E 04:35:04 10° N
Cosmos 1470 Rocket 4.1 04:30:39 10° N 04:34:56 60° E 04:39:12 10° SSE
CZ-2D R/B 4.2 04:32:25 10° N 04:36:04 34° WNW 04:37:28 26° WSW
Cosmos 2061 Rocket 4.2 04:30:02 10° S 04:36:26 76° E 04:42:53 10° N
Cosmos 1892 4.4 04:35:14 10° N 04:38:48 36° ENE 04:42:21 10° SE
Cosmos 1515 Rocket 3.8 04:40:11 10° S 04:44:32 73° E 04:48:57 10° NNE
Cosmos 1538 Rocket 4.1 04:39:51 13° SSW 04:44:38 87° ESE 04:50:03 10° NNE
Cosmos 1726 2.9 04:45:05 24° WSW 04:46:32 33° WNW 04:49:56 10° N
In-Cosmos 22 Rocket 4.0 04:41:45 10° NNW 04:47:12 82° W 04:52:30 10° S
Cosmos 1633 Rocket 3.3 04:45:06 10° NNW 04:49:17 45° W 04:53:25 10° SSW
ERBS 2.7 04:51:13 10° WNW 04:54:29 41° SW 04:57:43 10° SSE
COSMOS 2406 3.8 04:50:49 18° WSW 04:54:39 40° WNW 05:00:01 10° N
ARIANE 5 R/B 4.4 04:57:28 10° NNW 05:00:25 15° WNW 05:03:07 11° W
USA 161 2.9 05:03:09 14° WNW 05:03:09 14° WNW 05:03:49 10° NW
ADEOS II 2.2 04:57:20 10° N 05:02:32 63° WNW 05:07:42 10° SSW
USA 229 DEB 4.2 04:58:20 10° NW 05:04:54 39° WSW 05:11:33 10° S
USA 229 4.2 04:58:27 10° NW 05:05:00 40° WSW 05:11:40 10° S
Cosmos 2016 Rocket 3.9 04:59:23 10° S 05:05:31 82° W 05:11:40 10° N
NOSS 3-1 (A) 4.2 05:02:43 10° NW 05:10:23 90° WSW 05:18:51 10° SSE
BREEZE M DEB (TANK) 4.1 05:07:30 10° WNW 05:11:29 47° SSW 05:25:30 10° SE
Cosmos 1315 Rocket 4.1 05:08:31 10° NW 05:11:36 21° W 05:14:39 10° SW
Cosmos 1833 Rocket 3.6 05:06:46 10° S 05:12:10 49° ESE 05:17:36 10° NE
Cosmos 1680 Rocket 4.3 05:08:19 10° S 05:13:27 54° ESE 05:18:37 10° NNE
Cosmos 1328 Rocket 4.1 05:09:34 10° SW 05:13:34 37° WNW 05:17:37 10° N
Cosmos 1802 Rocket 4.1 05:08:12 10° SSW 05:14:15 59° W 05:20:28 10° N
Cosmos 1725 Rocket 4.1 05:10:29 10° S 05:16:40 87° E 05:22:53 10° N
Cosmos 1300 4.2 05:16:33 11° WSW 05:19:10 21° WNW 05:22:07 10° NNW
Cosmos 2100 Rocket 4.5 05:13:14 10° SSW 05:19:15 43° WNW 05:25:19 10° N
SL-27 R/B 3.9 05:17:23 12° WSW 05:19:43 21° WNW 05:22:26 10° N
Okean-O 4.3 05:17:17 10° NNE 05:21:23 35° E 05:25:27 10° SSE
CZ-4B R/B 4.4 05:17:48 10° NNE 05:21:39 57° E 05:25:18 10° S
PSLV R/B 3.9 05:19:02 10° N 05:23:14 48° WNW 05:27:22 10° SW
Cosmos 2278 3.7 05:17:39 10° NNW 05:23:20 85° WSW 05:28:59 10° SSE
EO 1 Del DPAF 4.0 05:19:35 10° SSE 05:23:22 58° ENE 05:27:10 10° N
Cosmos 1980 Rocket 4.2 05:18:37 10° N 05:23:40 33° ENE 05:28:42 10° ESE
CZ-4B R/B 3.7 05:22:43 10° N 05:26:51 41° WNW 05:31:05 10° SW
Okean O Rocket 2.0 05:24:27 10° N 05:28:43 47° WNW 05:32:57 10° SW
Cosmos 1408 4.3 05:25:35 10° N 05:29:00 38° ENE 05:32:23 10° SSE
Cosmos 1933 Rocket 4.1 05:25:07 10° NNW 05:29:16 38° W 05:33:23 10° SSW
Tsikada Rocket 4.0 05:26:43 10° N 05:33:01 77° W 05:39:22 10° S
CZ-4B DEB 4.4 05:27:34 10° N 05:33:02 60° WNW 05:38:26 10° SSW
MTI 3.8 05:30:12 10° SSE 05:33:24 87° E 05:36:38 10° NNW
Cosmos 1869 4.1 05:30:58 10° S 05:34:49 55° E 05:38:44 10° NNE
Lacrosse 5 2.4 05:30:43 10° NW 05:35:46 67° NE 05:40:49 10° SE
USA 234 3.5 05:31:29 10° NE 05:38:04 77° SE 05:44:37 10° SW
